Overview Statistics Trail Chart Weather Telemetry Raw packets
 

This is the latest recevied weather packets stored in our database for station/object N3LF. If no packets are shown the sender has not sent any weather packets the latest 10 day(s).

<< 14 15 16 17 18 19 20 >>
Time Temp. Humidity Pressure Rain* Wind** Luminosity Snow
1788524919 24.44° C 99% 1018.9 hPa 0 mm - 48 W/m² -
1788524618 23.89° C 99% 1018.8 hPa 0 mm - 45 W/m² -
1788524313 23.89° C 99% 1018.9 hPa 0 mm - 44 W/m² -
1788524010 23.89° C 99% 1018.8 hPa 0 mm - 41 W/m² -
1788523706 23.33° C 99% 1018.7 hPa 0 mm - 37 W/m² -
1788523401 23.33° C 99% 1018.7 hPa 0 mm - 32 W/m² -
1788523096 23.33° C 99% 1018.6 hPa 0 mm - 26 W/m² -
1788522792 23.33° C 99% 1018.4 hPa 0 mm - 21 W/m² -
1788522491 23.33° C 99% 1018.5 hPa 0 mm - 18 W/m² -
1788522186 23.33° C 99% 1018.4 hPa 0 mm - 14 W/m² -
1788521881 23.33° C 99% 1018.4 hPa 0 mm - 10 W/m² -
1788521580 22.78° C 99% 1018.4 hPa 0 mm - 7 W/m² -
1788521275 22.78° C 99% 1018.4 hPa 0 mm - 4 W/m² -
1788520971 22.78° C 99% 1018.2 hPa 0 mm - 3 W/m² -
1788520666 22.78° C 99% 1018.3 hPa 0 mm - 1 W/m² -
1788520362 22.78° C 99% 1018.1 hPa 0 mm - 1 W/m² -
1788520057 22.78° C 99% 1018.1 hPa 0 mm - 0 W/m² -
1788519756 22.78° C 99% 1018 hPa 0 mm - 0 W/m² -
1788519452 23.33° C 99% 1018 hPa 0 mm - 0 W/m² -
1788519146 23.33° C 99% 1018 hPa 0 mm - 0 W/m² -
1788518842 23.33° C 99% 1018 hPa 0 mm - 0 W/m² -
1788518537 23.33° C 99% 1018 hPa 0 mm - 0 W/m² -
1788518234 23.33° C 99% 1017.7 hPa 0 mm - 0 W/m² -
1788517928 23.33° C 99% 1017.7 hPa 0 mm - 0 W/m² -
1788517624 23.33° C 99% 1017.7 hPa 0 mm - 0 W/m² -

* Rain latest hour (hover to see other rain measurements)
** Current wind speed in m/s (hover to see current wind gust speed)